sampling_time,wmo_synop_id,msc_id,stn_nam,stn_elev,lat,long,stn_typ,date_tm,rpt_typ,result_time,crnt_buoy_lat,crnt_buoy_lat_qa_summary,crnt_buoy_long,crnt_buoy_long_qa_summary,avg_air_temp_pst10mts,avg_air_temp_pst10mts_qa_summary,avg_sea_sfc_temp_pst10mts,avg_sea_sfc_temp_pst10mts_qa_summary,avg_batry_volt_pst10mts,avg_batry_volt_pst10mts_qa_summary,avg_solr_panl_crnt_pst10mts,avg_solr_panl_crnt_pst10mts_qa_summary,avg_wtr_lvl_snsr_volt_pst10mts,avg_wtr_lvl_snsr_volt_pst10mts_qa_summary,avg_wave_hgt_pst20mts,avg_wave_hgt_pst20mts_qa_summary,pk_wave_hgt_pst20mts,pk_wave_hgt_pst20mts_qa_summary,sig_wave_pd_pst20mts,sig_wave_pd_pst20mts_qa_summary,sig_wave_hgt_pst20mts,sig_wave_hgt_pst20mts_qa_summary,avg_max_wave_hgt_pst20mts,avg_max_wave_hgt_pst20mts_qa_summary,avg_max_wave_pd_pst20mts,avg_max_wave_pd_pst20mts_qa_summary,avg_wave_pd_pst20mts,avg_wave_pd_pst20mts_qa_summary,pk_wave_pd_pst20mts,pk_wave_pd_pst20mts_qa_summary,avg_stn_pres_pst10mts,avg_stn_pres_pst10mts_qa_summary,avg_wnd_spd_pst10mts,avg_wnd_spd_pst10mts_qa_summary,avg_wnd_dir_pst10mts,avg_wnd_dir_pst10mts_qa_summary,max_avg_wnd_spd_pst10mts,max_avg_wnd_spd_pst10mts_qa_summary,wnd_snsr_vert_disp,wnd_snsr_vert_disp_qa_summary,pres_tend_amt_pst3hrs,pres_tend_amt_pst3hrs_data_flag,pres_tend_char_pst3hrs,pres_tend_char_pst3hrs_data_flag,avg_mslp_pst10mts,avg_mslp_pst10mts_data_flag,avg_stn_pres_pst10mts_1,avg_stn_pres_pst10mts_2,avg_wnd_spd_pst10mts_1,avg_wnd_spd_pst10mts_2,avg_wnd_dir_pst10mts_1,avg_wnd_dir_pst10mts_2,max_avg_wnd_spd_pst10mts_1,max_avg_wnd_spd_pst10mts_2,wnd_snsr_vert_disp_1,wnd_snsr_vert_disp_2,wnd_snsr_vert_disp_1_qa_summary,avg_stn_pres_pst10mts_1_qa_summary,avg_stn_pres_pst10mts_2_qa_summary,avg_wnd_spd_pst10mts_1_qa_summary,avg_wnd_spd_pst10mts_2_qa_summary,avg_wnd_dir_pst10mts_1_qa_summary,avg_wnd_dir_pst10mts_2_qa_summary,max_avg_wnd_spd_pst10mts_1_qa_summary,max_avg_wnd_spd_pst10mts_2_qa_summary
2020-10-28T00:00:00Z,44488,9302000,East Chedabucto Bay,0.0,45.445,-60.9538,18,2020-10-28T00:00:00.000Z,108,2020-10-28T00:08:12.333Z,45.44555,100,-60.95495,100,6.2,100,11.8,100,12.5,100,0.0,100,3.6,100,0.4,100,1.3,100,5.3,100,0.7,100,0.9,100,6.8,100,3.9,100,8.3,100,1014.0,100,34.9,100,319,100,42.5,100,5.0,100.0,1.3,1,1,1,1014.0,1,1014.0,1014.0,34.9,33.5,319,320,42.5,40.0,5.0,4.0,,,,,,,,,
2020-10-28T00:10:00Z,44488,9302000,East Chedabucto Bay,0.0,45.445,-60.9538,18,2020-10-28T00:10:00.000Z,110,2020-10-28T00:18:14.913Z,,-1,,-1,6.6,100,12.4,100,12.6,100,0.0,100,3.6,100,,-1,,-1,,-1,,-1,,-1,,-1,,-1,,-1,1013.9,100,33.1,100,317,100,42.1,100,5.0,100.0,1.3,1,0,1,1013.9,1,1013.9,1013.9,33.1,31.7,317,318,42.1,40.0,5.0,4.0,,,,,,,,,
2020-10-28T00:20:00Z,44488,9302000,East Chedabucto Bay,0.0,45.445,-60.9538,18,2020-10-28T00:20:00.000Z,110,2020-10-28T00:28:26.438Z,45.445570000000004,100,-60.954969999999996,100,6.0,100,11.8,100,12.5,100,0.0,100,3.6,100,,-1,,-1,,-1,,-1,,-1,,-1,,-1,,-1,1013.8,100,30.2,100,326,100,37.4,100,5.0,100.0,1.2,1,0,1,1013.8,1,1013.8,1013.8,30.2,29.2,326,327,37.4,36.4,5.0,4.0,,,,,,,,,
2020-10-28T00:30:00Z,44488,9302000,East Chedabucto Bay,0.0,45.445,-60.9538,18,2020-10-28T00:30:00.000Z,110,2020-10-28T00:38:25.860Z,45.44557,100,-60.95497,100,5.9,100,11.8,100,12.6,100,0.0,100,3.6,100,,-1,,-1,,-1,,-1,,-1,,-1,,-1,,-1,1013.8,100,28.4,100,328,100,37.8,100,5.0,100.0,1.2,1,1,1,1013.8,1,1013.8,1013.8,28.4,27.4,328,329,37.8,36.7,5.0,4.0,,,,,,,,,
2020-10-28T00:40:00Z,44488,9302000,East Chedabucto Bay,0.0,45.445,-60.9538,18,2020-10-28T00:40:00.000Z,110,2020-10-28T00:49:24.427Z,45.445570000000004,100,-60.954930000000004,100,6.0,100,11.8,100,12.5,100,0.0,100,3.6,100,,-1,,-1,,-1,,-1,,-1,,-1,,-1,,-1,1014.0,100,29.9,100,320,100,36.4,100,5.0,100.0,1.2,1,0,1,1014.0,1,1014.0,1014.0,29.9,28.4,320,321,36.4,36.0,5.0,4.0,,,,,,,,,
2020-10-28T00:50:00Z,44488,9302000,East Chedabucto Bay,0.0,45.445,-60.9538,18,2020-10-28T00:50:00.000Z,110,2020-10-28T00:58:28.947Z,45.44555,100,-60.95492,100,6.0,100,11.8,100,12.5,100,0.0,100,3.6,100,,-1,,-1,,-1,,-1,,-1,,-1,,-1,,-1,1014.0,100,31.7,100,307,100,38.9,100,5.0,100.0,1.2,1,0,1,1014.0,1,1014.0,1014.0,31.7,30.2,307,308,38.9,38.2,5.0,4.0,,,,,,,,,
2020-10-28T01:00:00Z,44488,9302000,East Chedabucto Bay,0.0,45.445,-60.9538,18,2020-10-28T01:00:00.000Z,108,2020-10-28T01:08:26.398Z,45.44558,100,-60.954919999999994,100,5.9,100,11.8,100,12.5,100,0.0,100,3.6,100,0.5,100,1.1,100,5.7,100,0.7,100,0.9,100,6.7,100,3.9,100,9.1,100,1014.0,100,24.8,100,307,100,31.7,100,5.0,100.0,1.2,1,1,1,1014.0,1,1014.0,1014.0,24.8,23.8,307,307,31.7,30.6,5.0,4.0,,,,,,,,,
2020-10-28T01:10:00Z,44488,9302000,East Chedabucto Bay,0.0,45.445,-60.9538,18,2020-10-28T01:10:00.000Z,110,2020-10-28T01:21:30.084Z,45.44558,100,-60.95493,100,6.1,100,11.8,100,12.5,100,0.0,100,3.6,100,,-1,,-1,,-1,,-1,,-1,,-1,,-1,,-1,1014.0,100,20.9,100,313,100,25.2,100,5.0,100.0,1.2,1,1,1,1014.0,1,1014.0,1014.0,20.9,20.2,313,314,25.2,24.8,5.0,4.0,,,,,,,,,
2020-10-28T01:20:00Z,44488,9302000,East Chedabucto Bay,0.0,45.445,-60.9538,18,2020-10-28T01:20:00.000Z,110,2020-10-28T01:29:13.099Z,45.44558,100,-60.954930000000004,100,6.2,100,11.8,100,12.5,100,0.0,100,3.6,100,,-1,,-1,,-1,,-1,,-1,,-1,,-1,,-1,1014.1,100,24.1,100,313,100,33.5,100,5.0,100.0,1.1,1,1,1,1014.1,1,1014.1,1014.0,24.1,23.4,313,314,33.5,32.4,5.0,4.0,,,,,,,,,
2020-10-28T01:30:00Z,44488,9302000,East Chedabucto Bay,0.0,45.445,-60.9538,18,2020-10-28T01:30:00.000Z,110,2020-10-28T01:38:45.324Z,45.44558,100,-60.954919999999994,100,6.4,100,11.8,100,12.5,100,0.0,100,3.6,100,,-1,,-1,,-1,,-1,,-1,,-1,,-1,,-1,1014.1,100,25.2,100,309,100,33.8,100,5.0,100.0,0.6,1,1,1,1014.1,1,1014.1,1014.1,25.2,24.1,309,310,33.8,33.5,5.0,4.0,,,,,,,,,
2020-10-28T01:40:00Z,44488,9302000,East Chedabucto Bay,0.0,45.445,-60.9538,18,2020-10-28T01:40:00.000Z,110,2020-10-28T01:48:45.099Z,45.44558,100,-60.95493,100,6.5,100,11.8,100,12.5,100,0.0,100,3.6,100,,-1,,-1,,-1,,-1,,-1,,-1,,-1,,-1,1014.2,100,26.3,100,316,100,35.3,100,5.0,100.0,0.1,1,3,1,1014.2,1,1014.2,1014.2,26.3,25.6,316,316,35.3,33.8,5.0,4.0,,,,,,,,,
2020-10-28T01:50:00Z,44488,9302000,East Chedabucto Bay,0.0,45.445,-60.9538,18,2020-10-28T01:50:00.000Z,110,2020-10-28T01:58:45.125Z,45.44557,100,-60.95495,100,6.4,100,11.8,100,12.5,100,0.0,100,3.6,100,,-1,,-1,,-1,,-1,,-1,,-1,,-1,,-1,1014.3,100,25.9,100,315,100,32.4,100,5.0,100.0,0.3,1,3,1,1014.3,1,1014.3,1014.3,25.9,25.2,315,316,32.4,32.0,5.0,4.0,,,,,,,,,
2020-10-28T02:00:00Z,44488,9302000,East Chedabucto Bay,0.0,45.445,-60.9538,18,2020-10-28T02:00:00.000Z,108,2020-10-28T02:07:45.891Z,45.445570000000004,100,-60.95495,100,6.4,100,11.8,100,12.5,100,0.0,100,3.6,100,0.5,100,1.1,100,4.9,100,0.7,100,0.9,100,4.9,100,3.8,100,8.3,100,1014.3,100,24.8,100,321,100,34.6,100,5.0,100.0,0.3,1,3,1,1014.3,1,1014.3,1014.3,24.8,24.1,321,322,34.6,32.4,5.0,4.0,,,,,,,,,
2020-10-28T02:10:00Z,44488,9302000,East Chedabucto Bay,0.0,45.445,-60.9538,18,2020-10-28T02:10:00.000Z,110,2020-10-28T02:21:49.754Z,45.44558,100,-60.95495,100,6.3,100,11.8,100,12.5,100,0.0,100,3.6,100,,-1,,-1,,-1,,-1,,-1,,-1,,-1,,-1,1014.3,100,25.6,100,322,100,33.5,100,5.0,100.0,0.2,1,3,1,1014.3,1,1014.3,1014.3,25.6,24.5,322,323,33.5,32.0,5.0,4.0,,,,,,,,,
2020-10-28T02:20:00Z,44488,9302000,East Chedabucto Bay,0.0,45.445,-60.9538,18,2020-10-28T02:20:00.000Z,110,2020-10-28T02:28:48.046Z,45.44558,100,-60.954930000000004,100,6.2,100,11.8,100,12.5,100,0.0,100,3.6,100,,-1,,-1,,-1,,-1,,-1,,-1,,-1,,-1,1014.3,100,24.8,100,328,100,35.6,100,5.0,100.0,0.4,1,3,1,1014.3,1,1014.3,1014.3,24.8,24.1,328,329,35.6,34.2,5.0,4.0,,,,,,,,,
2020-10-28T02:30:00Z,44488,9302000,East Chedabucto Bay,0.0,45.445,-60.9538,18,2020-10-28T02:30:00.000Z,110,2020-10-28T02:37:47.912Z,45.44558,100,-60.954980000000006,100,5.8,100,11.8,100,12.5,100,0.0,100,3.6,100,,-1,,-1,,-1,,-1,,-1,,-1,,-1,,-1,1014.4,100,23.4,100,332,100,34.2,100,5.0,100.0,0.5,1,3,1,1014.4,1,1014.4,1014.4,23.4,22.7,332,333,34.2,32.8,5.0,4.0,,,,,,,,,
2020-10-28T02:40:00Z,44488,9302000,East Chedabucto Bay,0.0,45.445,-60.9538,18,2020-10-28T02:40:00.000Z,110,2020-10-28T02:48:53.787Z,45.44563,100,-60.95502,100,5.7,100,11.8,100,12.5,100,0.0,100,3.6,100,,-1,,-1,,-1,,-1,,-1,,-1,,-1,,-1,1014.4,100,22.7,100,327,100,27.7,100,5.0,100.0,0.3,1,3,1,1014.4,1,1014.4,1014.4,22.7,21.6,327,328,27.7,27.4,5.0,4.0,,,,,,,,,
2020-10-28T02:50:00Z,44488,9302000,East Chedabucto Bay,0.0,45.445,-60.9538,18,2020-10-28T02:50:00.000Z,110,2020-10-28T02:57:49.204Z,45.445570000000004,100,-60.95495,100,5.8,100,11.8,100,12.5,100,0.0,100,3.6,100,,-1,,-1,,-1,,-1,,-1,,-1,,-1,,-1,1014.8,100,26.6,100,324,100,34.9,100,5.0,100.0,0.7,1,3,1,1014.8,1,1014.8,1014.8,26.6,25.6,324,325,34.9,34.2,5.0,4.0,,,,,,,,,
2020-10-28T03:00:00Z,44488,9302000,East Chedabucto Bay,0.0,45.445,-60.9538,18,2020-10-28T03:00:00.000Z,108,2020-10-28T03:08:02.595Z,45.44558,100,-60.95495,100,5.7,100,11.7,100,12.5,100,0.0,100,3.6,100,0.4,100,1.2,100,5.8,100,0.7,100,0.9,100,6.9,100,4.2,100,8.0,100,1014.9,100,27.4,100,322,100,34.6,100,5.0,100.0,0.9,1,3,1,1014.9,1,1014.9,1014.9,27.4,26.6,322,323,34.6,34.2,5.0,4.0,,,,,,,,,
2020-10-28T03:10:00Z,44488,9302000,East Chedabucto Bay,0.0,45.445,-60.9538,18,2020-10-28T03:10:00.000Z,110,2020-10-28T03:21:02.672Z,45.4456,100,-60.95497,100,5.8,100,11.7,100,12.5,100,0.0,100,3.6,100,,-1,,-1,,-1,,-1,,-1,,-1,,-1,,-1,1014.9,100,27.0,100,318,100,35.3,100,5.0,100.0,1.0,1,3,1,1014.9,1,1014.9,1014.9,27.0,26.3,318,319,35.3,34.2,5.0,4.0,,,,,,,,,
2020-10-28T03:20:00Z,44488,9302000,East Chedabucto Bay,0.0,45.445,-60.9538,18,2020-10-28T03:20:00.000Z,110,2020-10-28T03:28:05.251Z,45.44553,100,-60.954919999999994,100,5.7,100,11.8,100,12.5,100,0.0,100,3.6,100,,-1,,-1,,-1,,-1,,-1,,-1,,-1,,-1,1014.8,100,27.4,100,326,100,33.5,100,5.0,100.0,1.0,1,3,1,1014.8,1,1014.8,1014.8,27.4,26.6,326,327,33.5,33.5,5.0,4.0,,,,,,,,,
2020-10-28T03:30:00Z,44488,9302000,East Chedabucto Bay,0.0,45.445,-60.9538,18,2020-10-28T03:30:00.000Z,110,2020-10-28T03:38:05.891Z,45.44558,100,-60.95495,100,5.5,100,11.7,100,12.5,100,0.0,100,3.6,100,,-1,,-1,,-1,,-1,,-1,,-1,,-1,,-1,1014.9,100,27.4,100,328,100,35.3,100,5.0,100.0,1.1,1,3,1,1014.9,1,1014.9,1014.9,27.4,26.6,328,329,35.3,34.9,5.0,4.0,,,,,,,,,
2020-10-28T03:40:00Z,44488,9302000,East Chedabucto Bay,0.0,45.445,-60.9538,18,2020-10-28T03:40:00.000Z,110,2020-10-28T03:48:05.260Z,45.44558,100,-60.95495,100,5.4,100,11.7,100,12.5,100,0.0,100,3.6,100,,-1,,-1,,-1,,-1,,-1,,-1,,-1,,-1,1015.0,100,24.1,100,331,100,30.2,100,5.0,100.0,1.0,1,3,1,1015.0,1,1015.0,1015.0,24.1,23.4,331,331,30.2,30.2,5.0,4.0,,,,,,,,,
2020-10-28T03:50:00Z,44488,9302000,East Chedabucto Bay,0.0,45.445,-60.9538,18,2020-10-28T03:50:00.000Z,110,2020-10-28T03:58:07.542Z,45.44558,100,-60.95493,100,5.5,100,11.8,100,12.5,100,0.0,100,3.6,100,,-1,,-1,,-1,,-1,,-1,,-1,,-1,,-1,1014.8,100,28.8,100,331,100,37.1,100,5.0,100.0,0.8,1,1,1,1014.8,1,1014.8,1014.8,28.8,28.1,331,332,37.1,35.3,5.0,4.0,,,,,,,,,
2020-10-28T04:00:00Z,44488,9302000,East Chedabucto Bay,0.0,45.445,-60.9538,18,2020-10-28T04:00:00.000Z,108,2020-10-28T04:08:13.531Z,45.44558,100,-60.95495,100,5.3,100,11.7,100,12.5,100,0.0,100,3.6,100,0.4,100,1.1,100,5.9,100,0.7,100,0.9,100,6.7,100,4.2,100,8.0,100,1014.7,100,27.4,100,332,100,32.4,100,5.0,100.0,0.7,1,0,1,1014.7,1,1014.7,1014.7,27.4,26.6,332,333,32.4,32.0,5.0,4.0,,,,,,,,,
2020-10-28T04:10:00Z,44488,9302000,East Chedabucto Bay,0.0,45.445,-60.9538,18,2020-10-28T04:10:00.000Z,110,2020-10-28T04:21:10.846Z,45.4456,100,-60.95495,100,5.3,100,11.7,100,12.5,100,0.0,100,3.6,100,,-1,,-1,,-1,,-1,,-1,,-1,,-1,,-1,1014.7,100,26.3,100,328,100,31.3,100,5.0,100.0,0.8,1,0,1,1014.7,1,1014.7,1014.7,26.3,25.6,328,329,31.3,31.0,5.0,4.0,,,,,,,,,
2020-10-28T04:20:00Z,44488,9302000,East Chedabucto Bay,0.0,45.445,-60.9538,18,2020-10-28T04:20:00.000Z,110,2020-10-28T04:28:26.790Z,45.44558,100,-60.95495,100,5.2,100,11.7,100,12.5,100,0.0,100,3.6,100,,-1,,-1,,-1,,-1,,-1,,-1,,-1,,-1,1014.8,100,25.2,100,330,100,31.7,100,5.0,100.0,0.7,1,1,1,1014.8,1,1014.8,1014.8,25.2,24.5,330,331,31.7,31.7,5.0,4.0,,,,,,,,,
2020-10-28T04:30:00Z,44488,9302000,East Chedabucto Bay,0.0,45.445,-60.9538,18,2020-10-28T04:30:00.000Z,110,2020-10-28T04:38:24.064Z,45.4456,100,-60.95495,100,5.2,100,11.7,100,12.5,100,0.0,100,3.6,100,,-1,,-1,,-1,,-1,,-1,,-1,,-1,,-1,1015.0,100,24.1,100,332,100,30.2,100,5.0,100.0,0.9,1,1,1,1015.0,1,1015.0,1014.9,24.1,23.8,332,333,30.2,28.8,5.0,4.0,,,,,,,,,
2020-10-28T04:40:00Z,44488,9302000,East Chedabucto Bay,0.0,45.445,-60.9538,18,2020-10-28T04:40:00.000Z,110,2020-10-28T04:48:28.070Z,45.44562,100,-60.954969999999996,100,5.1,100,11.7,100,12.5,100,0.0,100,3.6,100,,-1,,-1,,-1,,-1,,-1,,-1,,-1,,-1,1014.9,100,22.0,100,334,100,28.1,100,5.0,100.0,0.7,1,0,1,1014.9,1,1014.9,1014.9,22.0,21.6,334,335,28.1,28.4,5.0,4.0,,,,,,,,,
2020-10-28T04:50:00Z,44488,9302000,East Chedabucto Bay,0.0,45.445,-60.9538,18,2020-10-28T04:50:00.000Z,110,2020-10-28T04:58:26.750Z,45.44562,100,-60.95495,100,5.0,100,11.7,100,12.5,100,0.0,100,3.6,100,,-1,,-1,,-1,,-1,,-1,,-1,,-1,,-1,1014.7,100,18.0,100,340,100,23.4,100,5.0,100.0,0.4,1,0,1,1014.7,1,1014.7,1014.7,18.0,18.0,340,341,23.4,23.4,5.0,4.0,,,,,,,,,
2020-10-28T05:00:00Z,44488,9302000,East Chedabucto Bay,0.0,45.445,-60.9538,18,2020-10-28T05:00:00.000Z,108,2020-10-28T05:08:39.421Z,45.44562,100,-60.954969999999996,100,5.0,100,11.7,100,12.5,100,0.0,100,3.6,100,0.4,100,1.0,100,5.1,100,0.6,100,0.7,100,5.6,100,3.9,100,8.7,100,1014.4,100,16.2,100,346,100,22.3,100,5.0,100.0,0.1,1,0,1,1014.4,1,1014.4,1014.4,16.2,16.2,346,347,22.3,22.7,5.0,4.0,,,,,,,,,
2020-10-28T05:10:00Z,44488,9302000,East Chedabucto Bay,0.0,45.445,-60.9538,18,2020-10-28T05:10:00.000Z,110,2020-10-28T05:21:40.374Z,45.44562,100,-60.95497,100,5.1,100,11.7,100,12.5,100,0.0,100,3.6,100,,-1,,-1,,-1,,-1,,-1,,-1,,-1,,-1,1014.5,100,19.4,100,329,100,24.5,100,5.0,100.0,0.2,1,0,1,1014.5,1,1014.5,1014.5,19.4,19.1,329,329,24.5,24.5,5.0,4.0,,,,,,,,,
2020-10-28T05:20:00Z,44488,9302000,East Chedabucto Bay,0.0,45.445,-60.9538,18,2020-10-28T05:20:00.000Z,110,2020-10-28T05:27:42.619Z,45.44558,100,-60.954919999999994,100,5.2,100,11.7,100,12.5,100,0.0,100,3.6,100,,-1,,-1,,-1,,-1,,-1,,-1,,-1,,-1,1014.7,100,24.1,100,317,100,31.7,100,5.0,100.0,0.4,1,0,1,1014.7,1,1014.7,1014.7,24.1,23.4,317,318,31.7,29.9,5.0,4.0,,,,,,,,,
2020-10-28T05:30:00Z,44488,9302000,East Chedabucto Bay,0.0,45.445,-60.9538,18,2020-10-28T05:30:00.000Z,110,2020-10-28T05:37:44.459Z,45.44558,100,-60.954930000000004,100,5.0,100,11.7,100,12.5,100,0.0,100,3.6,100,,-1,,-1,,-1,,-1,,-1,,-1,,-1,,-1,1015.0,100,27.4,100,319,100,35.6,100,5.0,100.0,0.6,1,1,1,1015.0,1,1015.0,1015.0,27.4,26.3,319,320,35.6,33.8,5.0,4.0,,,,,,,,,
2020-10-28T05:40:00Z,44488,9302000,East Chedabucto Bay,0.0,45.445,-60.9538,18,2020-10-28T05:40:00.000Z,110,2020-10-28T05:47:45.151Z,45.44558,100,-60.95495,100,4.9,100,11.7,100,12.5,100,0.0,100,3.6,100,,-1,,-1,,-1,,-1,,-1,,-1,,-1,,-1,1015.1,100,22.3,100,321,100,27.7,100,5.0,100.0,0.7,1,1,1,1015.1,1,1015.1,1015.1,22.3,21.6,321,322,27.7,28.1,5.0,4.0,,,,,,,,,
2020-10-28T05:50:00Z,44488,9302000,East Chedabucto Bay,0.0,45.445,-60.9538,18,2020-10-28T05:50:00.000Z,110,2020-10-28T05:57:55.441Z,45.44562,100,-60.954969999999996,100,5.0,100,11.7,100,12.5,100,0.0,100,3.6,100,,-1,,-1,,-1,,-1,,-1,,-1,,-1,,-1,1015.2,100,20.2,100,327,100,25.6,100,5.0,100.0,0.4,1,3,1,1015.2,1,1015.2,1015.2,20.2,19.8,327,328,25.6,25.6,5.0,4.0,,,,,,,,,
2020-10-28T06:00:00Z,44488,9302000,East Chedabucto Bay,0.0,45.445,-60.9538,18,2020-10-28T06:00:00.000Z,108,2020-10-28T06:08:58.121Z,45.44562,100,-60.95502,100,5.0,100,11.7,100,12.5,100,0.0,100,3.6,100,0.3,100,0.9,100,5.1,100,0.5,100,0.7,100,5.9,100,3.9,100,8.3,100,1015.1,100,18.7,100,333,100,26.3,100,5.0,100.0,0.2,1,3,1,1015.1,1,1015.1,1015.1,18.7,18.4,333,333,26.3,24.5,5.0,4.0,,,,,,,,,
2020-10-28T06:10:00Z,44488,9302000,East Chedabucto Bay,0.0,45.445,-60.9538,18,2020-10-28T06:10:00.000Z,110,2020-10-28T06:21:02.683Z,45.44562,100,-60.95503000000001,100,5.1,100,11.7,100,12.5,100,0.0,100,3.6,100,,-1,,-1,,-1,,-1,,-1,,-1,,-1,,-1,1015.1,100,18.0,100,330,100,22.3,100,5.0,100.0,0.2,1,3,1,1015.1,1,1015.1,1015.1,18.0,17.6,330,331,22.3,22.3,5.0,4.0,,,,,,,,,
2020-10-28T06:20:00Z,44488,9302000,East Chedabucto Bay,0.0,45.445,-60.9538,18,2020-10-28T06:20:00.000Z,110,2020-10-28T06:28:36.074Z,45.4456,100,-60.95502,100,5.2,100,11.7,100,12.5,100,0.0,100,3.6,100,,-1,,-1,,-1,,-1,,-1,,-1,,-1,,-1,1015.2,100,18.4,100,325,100,23.4,100,5.0,100.0,0.4,1,3,1,1015.2,1,1015.2,1015.2,18.4,18.0,325,326,23.4,22.7,5.0,4.0,,,,,,,,,
2020-10-28T06:30:00Z,44488,9302000,East Chedabucto Bay,0.0,45.445,-60.9538,18,2020-10-28T06:30:00.000Z,110,2020-10-28T06:37:59.004Z,45.4456,100,-60.95503000000001,100,5.2,100,11.7,100,12.5,100,0.0,100,3.6,100,,-1,,-1,,-1,,-1,,-1,,-1,,-1,,-1,1015.2,100,19.8,100,321,100,25.2,100,5.0,100.0,0.3,1,3,1,1015.2,1,1015.2,1015.2,19.8,19.1,321,321,25.2,24.1,5.0,4.0,,,,,,,,,
2020-10-28T06:40:00Z,44488,9302000,East Chedabucto Bay,0.0,45.445,-60.9538,18,2020-10-28T06:40:00.000Z,110,2020-10-28T06:47:59.506Z,45.44563,100,-60.95502,100,5.3,100,11.6,100,12.5,100,0.0,100,3.6,100,,-1,,-1,,-1,,-1,,-1,,-1,,-1,,-1,1015.4,100,18.7,100,302,100,24.8,100,5.0,100.0,0.5,1,3,1,1015.4,1,1015.4,1015.4,18.7,18.0,302,303,24.8,24.8,5.0,4.0,,,,,,,,,
2020-10-28T06:50:00Z,44488,9302000,East Chedabucto Bay,0.0,45.445,-60.9538,18,2020-10-28T06:50:00.000Z,110,2020-10-28T06:58:02.591Z,45.44563,100,-60.955,100,5.3,100,11.6,100,12.5,100,0.0,100,3.6,100,,-1,,-1,,-1,,-1,,-1,,-1,,-1,,-1,1015.6,100,19.4,100,302,100,24.8,100,5.0,100.0,0.8,1,3,1,1015.6,1,1015.6,1015.6,19.4,19.1,302,302,24.8,24.1,5.0,4.0,,,,,,,,,
2020-10-28T07:00:00Z,44488,9302000,East Chedabucto Bay,0.0,45.445,-60.9538,18,2020-10-28T07:00:00.000Z,108,2020-10-28T07:09:04.538Z,45.44563,100,-60.95497,100,5.7,100,11.6,100,12.5,100,0.0,100,3.6,100,0.3,100,1.0,100,6.3,100,0.5,100,0.7,100,6.9,100,4.4,100,8.3,100,1015.7,100,20.5,100,309,100,26.3,100,5.0,100.0,1.0,1,3,1,1015.7,1,1015.7,1015.7,20.5,20.2,309,309,26.3,25.6,5.0,4.0,,,,,,,,,
2020-10-28T07:10:00Z,44488,9302000,East Chedabucto Bay,0.0,45.445,-60.9538,18,2020-10-28T07:10:00.000Z,110,2020-10-28T07:21:17.521Z,45.44562,100,-60.954969999999996,100,5.8,100,11.7,100,12.5,100,0.0,100,3.6,100,,-1,,-1,,-1,,-1,,-1,,-1,,-1,,-1,1015.6,100,20.9,100,310,100,28.4,100,5.0,100.0,0.9,1,3,1,1015.6,1,1015.6,1015.6,20.9,20.2,310,311,28.4,28.1,5.0,4.0,,,,,,,,,
2020-10-28T07:20:00Z,44488,9302000,East Chedabucto Bay,0.0,45.445,-60.9538,18,2020-10-28T07:20:00.000Z,110,2020-10-28T07:28:14.989Z,45.44562,100,-60.95497,100,5.8,100,11.7,100,12.5,100,0.0,100,3.6,100,,-1,,-1,,-1,,-1,,-1,,-1,,-1,,-1,1015.9,100,26.3,100,310,100,33.8,100,5.0,100.0,1.1,1,3,1,1015.9,1,1015.9,1015.8,26.3,25.6,310,311,33.8,32.8,5.0,4.0,,,,,,,,,
2020-10-28T07:30:00Z,44488,9302000,East Chedabucto Bay,0.0,45.445,-60.9538,18,2020-10-28T07:30:00.000Z,110,2020-10-28T07:38:18.551Z,45.44562,100,-60.95493,100,5.9,100,11.7,100,12.5,100,0.0,100,3.6,100,,-1,,-1,,-1,,-1,,-1,,-1,,-1,,-1,1015.9,100,27.7,100,303,100,36.4,100,5.0,100.0,0.9,1,3,1,1015.9,1,1015.9,1015.9,27.7,27.0,303,304,36.4,35.3,5.0,4.0,,,,,,,,,
2020-10-28T07:40:00Z,44488,9302000,East Chedabucto Bay,0.0,45.445,-60.9538,18,2020-10-28T07:40:00.000Z,110,2020-10-28T07:48:18.592Z,45.44562,100,-60.95495,100,5.7,100,11.7,100,12.5,100,0.0,100,3.6,100,,-1,,-1,,-1,,-1,,-1,,-1,,-1,,-1,1015.8,100,26.6,100,310,100,35.6,100,5.0,100.0,0.9,1,3,1,1015.8,1,1015.8,1015.8,26.6,25.6,310,311,35.6,34.6,5.0,4.0,,,,,,,,,
2020-10-28T07:50:00Z,44488,9302000,East Chedabucto Bay,0.0,45.445,-60.9538,18,2020-10-28T07:50:00.000Z,110,2020-10-28T07:58:17.867Z,45.44562,100,-60.95495,100,5.8,100,11.7,100,12.5,100,0.0,100,3.6,100,,-1,,-1,,-1,,-1,,-1,,-1,,-1,,-1,1015.8,100,23.8,100,307,100,32.8,100,5.0,100.0,1.0,1,1,1,1015.8,1,1015.8,1015.7,23.8,23.0,307,308,32.8,31.7,5.0,4.0,,,,,,,,,
2020-10-28T08:00:00Z,44488,9302000,East Chedabucto Bay,0.0,45.445,-60.9538,18,2020-10-28T08:00:00.000Z,108,2020-10-28T08:08:18.857Z,45.44567,100,-60.954969999999996,100,5.8,100,11.7,100,12.5,100,0.0,100,3.6,100,0.3,100,1.0,100,5.0,100,0.5,100,0.6,100,5.7,100,3.7,100,7.4,100,1015.8,100,22.0,100,314,100,26.6,100,5.0,100.0,1.4,1,1,1,1015.8,1,1015.8,1015.8,22.0,21.6,314,315,26.6,26.6,5.0,4.0,,,,,,,,,
2020-10-28T08:10:00Z,44488,9302000,East Chedabucto Bay,0.0,45.445,-60.9538,18,2020-10-28T08:10:00.000Z,110,2020-10-28T08:21:21.822Z,45.44563,100,-60.95497,100,5.7,100,11.7,100,12.5,100,0.0,100,3.6,100,,-1,,-1,,-1,,-1,,-1,,-1,,-1,,-1,1015.9,100,20.2,100,312,100,25.6,100,5.0,100.0,1.4,1,1,1,1015.9,1,1015.9,1015.9,20.2,19.8,312,313,25.6,25.6,5.0,4.0,,,,,,,,,
2020-10-28T08:20:00Z,44488,9302000,East Chedabucto Bay,0.0,45.445,-60.9538,18,2020-10-28T08:20:00.000Z,110,2020-10-28T08:28:23.363Z,45.44563,100,-60.954980000000006,100,5.8,100,11.7,100,12.5,100,0.0,100,3.6,100,,-1,,-1,,-1,,-1,,-1,,-1,,-1,,-1,1016.0,100,19.4,100,316,100,24.5,100,5.0,100.0,1.3,1,1,1,1016.0,1,1016.0,1016.0,19.4,18.7,316,317,24.5,23.8,5.0,4.0,,,,,,,,,
2020-10-28T08:30:00Z,44488,9302000,East Chedabucto Bay,0.0,45.445,-60.9538,18,2020-10-28T08:30:00.000Z,110,2020-10-28T08:38:35.592Z,45.44563,100,-60.954980000000006,100,5.8,100,11.7,100,12.5,100,0.0,100,3.6,100,,-1,,-1,,-1,,-1,,-1,,-1,,-1,,-1,1016.0,100,20.9,100,319,100,26.6,100,5.0,100.0,1.0,1,2,1,1016.0,1,1016.0,1016.0,20.9,20.2,319,320,26.6,27.0,5.0,4.0,,,,,,,,,
2020-10-28T08:40:00Z,44488,9302000,East Chedabucto Bay,0.0,45.445,-60.9538,18,2020-10-28T08:40:00.000Z,110,2020-10-28T08:48:37.995Z,45.44562,100,-60.95495,100,5.8,100,11.7,100,12.5,100,0.0,100,3.6,100,,-1,,-1,,-1,,-1,,-1,,-1,,-1,,-1,1016.2,100,22.0,100,312,100,28.8,100,5.0,100.0,1.0,1,3,1,1016.2,1,1016.2,1016.2,22.0,21.2,312,313,28.8,27.7,5.0,4.0,,,,,,,,,
2020-10-28T08:50:00Z,44488,9302000,East Chedabucto Bay,0.0,45.445,-60.9538,18,2020-10-28T08:50:00.000Z,110,2020-10-28T08:58:36.005Z,45.44562,100,-60.95495,100,5.7,100,11.6,100,12.5,100,0.0,100,3.6,100,,-1,,-1,,-1,,-1,,-1,,-1,,-1,,-1,1016.2,100,24.1,100,311,100,31.7,100,5.0,100.0,1.1,1,2,1,1016.2,1,1016.2,1016.2,24.1,23.4,311,311,31.7,31.7,5.0,4.0,,,,,,,,,
2020-10-28T09:00:00Z,44488,9302000,East Chedabucto Bay,0.0,45.445,-60.9538,18,2020-10-28T09:00:00.000Z,108,2020-10-28T09:08:37.504Z,45.44563,100,-60.95495,100,5.9,100,11.6,100,12.5,100,0.0,100,3.6,100,0.3,100,0.7,100,4.7,100,0.4,100,0.6,100,5.7,100,3.5,100,8.0,100,1016.3,100,23.4,100,306,100,29.2,100,5.0,100.0,1.2,1,1,1,1016.3,1,1016.3,1016.2,23.4,22.7,306,307,29.2,28.8,5.0,4.0,,,,,,,,,
2020-10-28T09:10:00Z,44488,9302000,East Chedabucto Bay,0.0,45.445,-60.9538,18,2020-10-28T09:10:00.000Z,110,2020-10-28T09:20:45.595Z,45.44565,100,-60.95495,100,6.0,100,11.6,100,12.5,100,0.0,100,3.6,100,,-1,,-1,,-1,,-1,,-1,,-1,,-1,,-1,1016.4,100,24.1,100,297,100,33.1,100,5.0,100.0,1.3,1,1,1,1016.4,1,1016.4,1016.4,24.1,23.4,297,298,33.1,32.4,5.0,4.0,,,,,,,,,
2020-10-28T09:20:00Z,44488,9302000,East Chedabucto Bay,0.0,45.445,-60.9538,18,2020-10-28T09:20:00.000Z,110,2020-10-28T09:27:44.417Z,45.44565,100,-60.95492,100,5.7,100,11.6,100,12.5,100,0.0,100,3.6,100,,-1,,-1,,-1,,-1,,-1,,-1,,-1,,-1,1016.5,100,27.7,100,296,100,39.6,100,5.0,100.0,1.3,1,1,1,1016.5,1,1016.5,1016.5,27.7,27.0,296,297,39.6,39.2,5.0,4.0,,,,,,,,,
2020-10-28T09:30:00Z,44488,9302000,East Chedabucto Bay,0.0,45.445,-60.9538,18,2020-10-28T09:30:00.000Z,110,2020-10-28T09:37:45.236Z,45.44565,100,-60.95488,100,5.5,100,11.7,100,12.5,100,0.0,100,3.6,100,,-1,,-1,,-1,,-1,,-1,,-1,,-1,,-1,1016.7,100,25.2,100,303,100,30.2,100,5.0,100.0,1.4,1,1,1,1016.7,1,1016.7,1016.6,25.2,24.8,303,304,30.2,29.5,5.0,4.0,,,,,,,,,
2020-10-28T09:40:00Z,44488,9302000,East Chedabucto Bay,0.0,45.445,-60.9538,18,2020-10-28T09:40:00.000Z,110,2020-10-28T09:48:42.480Z,45.44565,100,-60.9549,100,5.5,100,11.7,100,12.5,100,0.0,100,3.6,100,,-1,,-1,,-1,,-1,,-1,,-1,,-1,,-1,1016.8,100,24.5,100,307,100,30.2,100,5.0,100.0,1.4,1,3,1,1016.8,1,1016.8,1016.8,24.5,24.1,307,308,30.2,29.9,5.0,4.0,,,,,,,,,
2020-10-28T09:50:00Z,44488,9302000,East Chedabucto Bay,0.0,45.445,-60.9538,18,2020-10-28T09:50:00.000Z,110,2020-10-28T09:57:56.963Z,45.44563,100,-60.95483,100,5.5,100,11.7,100,12.5,100,0.0,100,3.6,100,,-1,,-1,,-1,,-1,,-1,,-1,,-1,,-1,1016.9,100,26.6,100,312,100,31.3,100,5.0,100.0,1.3,1,3,1,1016.9,1,1016.9,1016.9,26.6,26.3,312,313,31.3,31.3,5.0,4.0,,,,,,,,,